"Period start","avg(HW err(1)/warn(2) (#))","avg(Visibility (m))","avg(Weather code (#))","avg(Precip intensity (mm/h))","min(HW err(1)/warn(2) (#))","max(HW err(1)/warn(2) (#))","std(HW err(1)/warn(2) (#))","med(HW err(1)/warn(2) (#))","min(Visibility (m))","max(Visibility (m))","std(Visibility (m))","med(Visibility (m))","min(Weather code (#))","max(Weather code (#))","std(Weather code (#))","med(Weather code (#))","min(Precip intensity (mm/h))","max(Precip intensity (mm/h))","std(Precip intensity (mm/h))","med(Precip intensity (mm/h))"
2017-12-08 00:00:00,2,50000,0,0.00,1,2,0,2,50000,50000,0,50000,0,0,0,0,0.00,0.00,0.00,0.00
2017-12-08 00:10:00,2,50000,0,0.00,2,2,0,2,50000,50000,0,50000,0,0,0,0,0.00,0.00,0.00,0.00
2017-12-08 00:20:00,2,50000,0,0.00,2,2,0,2,50000,50000,0,50000,0,0,0,0,0.00,0.00,0.00,0.00
2017-12-08 00:30:00,2,50000,0,0.00,2,2,0,2,50000,50000,0,50000,0,0,0,0,0.00,0.00,0.00,0.00
2017-12-08 00:40:00,2,50000,0,0.00,2,2,0,2,50000,50000,0,50000,0,0,0,0,0.00,0.00,0.00,0.00
2017-12-08 00:50:00,2,50000,0,0.00,2,2,0,2,50000,50000,0,50000,0,0,0,0,0.00,0.00,0.00,0.00
2017-12-08 01:00:00,2,50000,0,0.00,2,2,0,2,50000,50000,0,50000,0,0,0,0,0.00,0.00,0.00,0.00
2017-12-08 01:10:00,2,29466,0,0.00,2,2,0,2,10441,50000,15833,23764,0,0,0,0,0.00,0.00,0.00,0.00
2017-12-08 01:20:00,2,28345,60,0.00,2,2,0,2,20942,34180,3664,28710,40,77,16,71,0.00,0.00,0.00,0.00
2017-12-08 01:30:00,2,28755,59,0.01,2,2,0,2,15638,43580,10380,26803,41,77,18,59,0.00,0.05,0.02,0.00
2017-12-08 01:40:00,2,21220,54,0.03,2,2,0,2,10403,32274,6567,21558,41,77,16,41,0.00,0.05,0.03,0.03
2017-12-08 01:50:00,2,18419,75,0.02,2,2,0,2,8264,31240,8911,15676,71,77,3,77,0.00,0.05,0.02,0.00
2017-12-08 02:00:00,2,22215,15,0.00,2,2,0,2,13780,36316,6730,22524,0,77,30,0,0.00,0.00,0.00,0.00
2017-12-08 02:10:00,2,17933,0,0.00,2,2,0,2,14834,23354,2603,17645,0,0,0,0,0.00,0.00,0.00,0.00
2017-12-08 02:20:00,2,20416,0,0.00,2,2,0,2,12746,28850,5575,19894,0,0,0,0,0.00,0.00,0.00,0.00
2017-12-08 02:30:00,2,11937,77,0.00,2,2,0,2,10057,15354,1360,11786,71,78,3,78,0.00,0.00,0.00,0.00
2017-12-08 02:40:00,2,10989,76,0.01,2,2,0,2,6974,15374,2706,10864,71,78,3,78,0.00,0.05,0.02,0.00
2017-12-08 02:50:00,2,12647,78,0.00,2,2,0,2,9255,23283,4506,10586,78,78,0,78,0.00,0.00,0.00,0.00
2017-12-08 03:00:00,2,8213,75,0.08,2,2,0,2,6751,9171,714,8251,71,78,3,77,0.00,0.15,0.04,0.10
2017-12-08 03:10:00,2,7202,74,0.12,2,2,0,2,5661,8468,814,7320,71,78,3,74,0.05,0.25,0.07,0.10
2017-12-08 03:20:00,2,5454,77,0.14,2,2,0,2,4187,6985,885,5416,77,77,0,77,0.05,0.30,0.07,0.10
2017-12-08 03:30:00,2,6112,77,0.11,2,2,0,2,4130,8557,1365,6104,77,77,0,77,0.05,0.25,0.07,0.10
2017-12-08 03:40:00,2,9381,77,0.06,2,2,0,2,6126,11784,1934,9733,77,77,0,77,0.05,0.10,0.02,0.05
2017-12-08 03:50:00,2,8013,77,0.06,2,2,0,2,6886,9613,966,7600,77,77,0,77,0.05,0.10,0.02,0.05
2017-12-08 04:00:00,2,34094,77,0.01,2,2,0,2,10723,50000,16016,39960,77,77,0,77,0.00,0.05,0.02,0.00
2017-12-08 04:10:00,2,27367,77,0.07,2,2,0,2,10640,50000,13731,23374,71,78,3,78,0.00,0.65,0.19,0.00
2017-12-08 04:20:00,2,20834,72,0.01,2,2,0,2,14602,25272,3253,20454,71,77,2,71,0.00,0.15,0.05,0.00
2017-12-08 04:30:00,2,19062,78,0.02,2,2,0,2,13310,25676,3190,19160,77,78,0,78,0.00,0.05,0.02,0.00
2017-12-08 04:40:00,2,18096,77,0.04,2,2,0,2,14939,20842,1573,18198,77,77,0,77,0.00,0.10,0.03,0.05
2017-12-08 04:50:00,2,14176,76,0.06,2,2,0,2,11201,17392,1729,14434,71,77,2,77,0.05,0.10,0.02,0.05
2017-12-08 05:00:00,2,11071,73,0.07,2,2,0,2,9017,13723,1380,10479,71,77,3,71,0.05,0.15,0.03,0.05
2017-12-08 05:10:00,2,10737,73,0.11,2,2,0,2,8279,15260,2173,10143,71,77,3,71,0.00,0.20,0.07,0.10
2017-12-08 05:20:00,2,9527,71,0.11,2,2,0,2,7983,11414,971,9460,71,71,0,71,0.05,0.30,0.08,0.08
2017-12-08 05:30:00,2,8008,71,0.12,2,2,0,2,5919,11563,1583,7718,71,71,0,71,0.05,0.30,0.09,0.10
2017-12-08 05:40:00,2,7279,73,0.14,2,2,0,2,6281,8100,639,7323,71,77,3,71,0.05,0.30,0.07,0.15
2017-12-08 05:50:00,2,6168,71,0.12,2,2,0,2,4164,8398,1278,5772,71,71,0,71,0.05,0.30,0.09,0.08
2017-12-08 06:00:00,2,5866,71,0.22,2,2,0,2,4269,7402,1038,6128,71,71,0,71,0.05,0.40,0.11,0.20
2017-12-08 06:10:00,2,5526,71,0.47,2,2,0,2,4315,7529,876,5398,71,71,0,71,0.20,0.85,0.19,0.42
2017-12-08 06:20:00,2,6459,71,0.38,2,2,0,2,4963,7547,880,6352,71,71,0,71,0.15,0.55,0.14,0.35
2017-12-08 06:30:00,2,6461,71,0.36,2,2,0,2,4273,8555,1548,6546,71,71,0,71,0.10,0.85,0.28,0.20
2017-12-08 06:40:00,2,5154,71,0.65,2,2,0,2,3483,7708,1087,5126,71,71,0,71,0.10,1.25,0.34,0.57
2017-12-08 06:50:00,2,6665,71,0.24,2,2,0,2,5631,8481,741,6528,71,71,0,71,0.10,0.45,0.12,0.23
2017-12-08 07:00:00,2,5757,71,0.43,2,2,0,2,3874,8030,1377,5272,71,71,0,71,0.15,0.75,0.17,0.47
2017-12-08 07:10:00,2,6291,71,0.32,2,2,0,2,4558,7678,1102,6498,71,71,0,71,0.10,0.70,0.18,0.25
2017-12-08 07:20:00,2,5751,71,0.49,2,2,0,2,3776,7493,1259,6010,71,71,0,71,0.15,1.10,0.38,0.28
2017-12-08 07:30:00,2,4478,71,0.67,2,2,0,2,3118,6050,958,4048,71,71,0,71,0.40,0.95,0.20,0.68
2017-12-08 07:40:00,2,3736,71,0.96,2,2,0,2,2196,5835,1351,3468,71,71,0,71,0.25,2.30,0.61,0.85
2017-12-08 07:50:00,2,3570,71,0.79,2,2,0,2,3064,4696,458,3444,71,71,0,71,0.40,1.15,0.22,0.78
2017-12-08 08:00:00,2,4715,71,0.55,2,2,0,2,3275,6581,958,4613,71,71,0,71,0.15,1.15,0.30,0.42
2017-12-08 08:10:00,2,8884,71,0.31,2,2,0,2,6427,13029,2132,7922,71,71,0,71,0.05,0.75,0.19,0.30
2017-12-08 08:20:00,2,8086,71,0.42,2,2,0,2,4912,10645,1871,8349,71,71,0,71,0.10,1.05,0.34,0.28
2017-12-08 08:30:00,2,13551,71,0.23,2,2,0,2,7116,19839,3455,14052,71,71,0,71,0.05,0.50,0.14,0.25
2017-12-08 08:40:00,2,26338,73,0.05,2,2,0,2,7132,39918,11949,27940,71,77,3,71,0.00,0.25,0.07,0.03
2017-12-08 08:50:00,2,11711,72,0.07,2,2,0,2,7673,18394,3345,10586,71,77,2,71,0.00,0.15,0.05,0.08
2017-12-08 09:00:00,2,16193,71,0.09,2,2,0,2,8326,26130,5346,16264,71,71,0,71,0.00,0.40,0.11,0.05
2017-12-08 09:10:00,2,12126,73,0.09,2,2,0,2,8635,14386,1967,12316,71,77,3,71,0.00,0.20,0.06,0.08
2017-12-08 09:20:00,2,16060,71,0.14,2,2,0,2,10111,21961,3306,15874,71,71,0,71,0.00,0.75,0.21,0.08
2017-12-08 09:30:00,2,14926,73,0.05,2,2,0,2,10780,20908,3348,13826,71,77,3,71,0.00,0.10,0.03,0.05
2017-12-08 09:40:00,2,12600,71,0.12,2,2,0,2,5368,20316,3796,12571,71,71,0,71,0.00,0.65,0.18,0.05
2017-12-08 09:50:00,2,4517,71,0.41,2,2,0,2,2116,9114,2116,3891,71,71,0,71,0.10,0.95,0.32,0.28
2017-12-08 10:00:00,2,3185,71,0.73,2,2,0,2,1860,4809,1091,2668,71,71,0,71,0.25,1.60,0.47,0.57
2017-12-08 10:10:00,2,4626,71,0.34,2,2,0,2,3539,6625,982,4424,71,71,0,71,0.10,0.80,0.19,0.25
2017-12-08 10:20:00,2,7186,72,0.12,2,2,0,2,3039,10758,2728,7070,71,77,2,71,0.05,0.30,0.10,0.05
2017-12-08 10:30:00,2,7687,75,0.08,2,2,0,2,5846,10836,1393,7716,71,77,3,77,0.05,0.10,0.02,0.10
2017-12-08 10:40:00,2,9300,76,0.06,2,2,0,2,6818,11919,1402,9102,71,77,2,77,0.00,0.10,0.04,0.05
2017-12-08 10:50:00,2,15872,76,0.06,2,2,0,2,12207,22817,3223,14892,71,77,2,77,0.00,0.15,0.05,0.05
2017-12-08 11:00:00,2,14886,71,0.09,2,2,0,2,5304,24988,5989,14473,71,71,0,71,0.00,0.20,0.06,0.08
2017-12-08 11:10:00,2,8535,71,0.17,2,2,0,2,4809,12751,3004,7988,71,71,0,71,0.05,0.70,0.19,0.08
2017-12-08 11:20:00,2,21272,74,0.01,2,2,0,2,15861,33311,5328,19506,71,78,3,74,0.00,0.05,0.02,0.00
2017-12-08 11:30:00,2,12586,77,0.04,2,2,0,2,7470,18104,3096,12488,77,78,0,77,0.00,0.05,0.02,0.05
2017-12-08 11:40:00,2,7581,77,0.07,2,2,0,2,5787,8764,925,7636,77,77,0,77,0.05,0.10,0.02,0.05
2017-12-08 11:50:00,2,9703,77,0.04,2,2,0,2,7469,15105,2051,9544,77,77,0,77,0.00,0.10,0.03,0.05
2017-12-08 12:00:00,2,13634,75,0.06,2,2,0,2,7930,27067,5529,14172,71,77,3,77,0.00,0.15,0.05,0.05
2017-12-08 12:10:00,2,15046,77,0.05,2,2,0,2,10411,20292,3386,14555,77,77,0,77,0.00,0.10,0.02,0.05
2017-12-08 12:20:00,2,14493,77,0.04,2,2,0,2,11795,18606,2208,14347,77,77,0,77,0.00,0.05,0.02,0.05
2017-12-08 12:30:00,2,10841,77,0.06,2,2,0,2,7774,16572,2861,9860,77,77,0,77,0.00,0.10,0.03,0.05
2017-12-08 12:40:00,2,6337,77,0.10,2,2,0,2,4288,9131,1659,6186,77,77,0,77,0.05,0.25,0.07,0.08
2017-12-08 12:50:00,2,5808,73,0.09,2,2,0,2,4415,7544,915,5488,71,77,3,71,0.05,0.20,0.05,0.08
2017-12-08 13:00:00,2,7516,77,0.04,2,2,0,2,6637,8628,686,7372,77,77,0,77,0.00,0.05,0.02,0.05
2017-12-08 13:10:00,2,4407,77,0.07,2,2,0,2,2911,6073,1070,4448,77,77,0,77,0.05,0.10,0.03,0.08
2017-12-08 13:20:00,2,6463,77,0.05,2,2,0,2,4851,7958,886,6386,77,77,0,77,0.00,0.10,0.02,0.05
2017-12-08 13:30:00,2,6388,77,0.05,2,2,0,2,4854,8639,947,6298,77,77,0,77,0.00,0.10,0.02,0.05
2017-12-08 13:40:00,2,12336,77,0.06,2,2,0,2,6126,16600,3179,12251,77,77,0,77,0.05,0.10,0.02,0.05
2017-12-08 13:50:00,2,15384,77,0.02,2,2,0,2,11341,20733,3013,14888,77,77,0,77,0.00,0.05,0.02,0.00
2017-12-08 14:00:00,2,16553,77,0.02,2,2,0,2,12346,18568,1937,17080,77,77,0,77,0.00,0.05,0.02,0.00
2017-12-08 14:10:00,2,10045,77,0.07,2,2,0,2,7083,13978,2017,9703,77,77,0,77,0.00,0.10,0.03,0.05
2017-12-08 14:20:00,2,10246,77,0.04,2,2,0,2,7418,15315,2458,9314,77,77,0,77,0.00,0.15,0.04,0.05
2017-12-08 14:30:00,2,11199,77,0.03,2,2,0,2,8868,12781,1489,11810,77,77,0,77,0.00,0.05,0.02,0.05
2017-12-08 14:40:00,2,9523,75,0.10,2,2,0,2,7089,11891,1581,9675,71,77,3,77,0.00,0.30,0.08,0.08
2017-12-08 14:50:00,2,8103,77,0.09,2,2,0,2,5861,10595,1310,8165,77,77,0,77,0.05,0.15,0.03,0.10
2017-12-08 15:00:00,2,9911,75,0.07,2,2,0,2,8418,11317,947,10070,71,77,3,77,0.00,0.15,0.05,0.05
2017-12-08 15:10:00,2,14016,77,0.07,2,2,0,2,8425,22680,4826,12804,77,77,0,77,0.00,0.35,0.10,0.05
2017-12-08 15:20:00,2,16417,77,0.06,2,2,0,2,12379,22448,2557,15702,77,77,0,77,0.00,0.15,0.03,0.05
2017-12-08 15:30:00,2,21345,75,0.04,2,2,0,2,6525,32563,7906,23522,71,77,3,77,0.00,0.20,0.06,0.00
2017-12-08 15:40:00,2,20655,77,0.04,2,2,0,2,9125,32408,8012,21674,77,77,0,77,0.00,0.15,0.05,0.03
2017-12-08 15:50:00,2,20895,76,0.04,2,2,0,2,7572,30814,7471,19396,71,77,2,77,0.00,0.30,0.09,0.00
2017-12-08 16:00:00,2,33921,76,0.02,2,2,0,2,28928,42016,3695,34042,71,77,2,77,0.00,0.05,0.02,0.00
2017-12-08 16:10:00,2,32598,77,0.06,2,2,0,2,5259,50000,17073,39065,77,77,0,77,0.00,0.25,0.08,0.00
2017-12-08 16:20:00,2,17319,73,0.11,2,2,0,2,5545,30163,8344,15432,71,77,3,71,0.00,0.50,0.14,0.05
2017-12-08 16:30:00,2,27632,77,0.04,2,2,0,2,24285,32956,2805,27268,77,77,0,77,0.00,0.10,0.03,0.05
2017-12-08 16:40:00,2,19836,77,0.06,2,2,0,2,12120,29734,5364,19688,77,77,0,77,0.00,0.10,0.04,0.05
2017-12-08 16:50:00,2,20018,75,0.07,2,2,0,2,11391,26008,4102,20407,71,77,3,77,0.00,0.45,0.13,0.05
2017-12-08 17:00:00,2,4222,71,2.01,2,2,0,2,582,20619,5792,1674,71,71,0,71,0.00,5.20,1.63,1.88
2017-12-08 17:10:00,2,7534,71,0.49,2,2,0,2,3066,10600,2397,7734,71,71,0,71,0.05,1.65,0.47,0.33
2017-12-08 17:20:00,2,9789,67,0.10,2,2,0,2,5945,12612,2420,10570,41,77,13,71,0.00,0.40,0.11,0.05
2017-12-08 17:30:00,2,6407,73,0.04,2,2,0,2,3826,8314,1407,6716,71,77,3,71,0.00,0.10,0.03,0.05
2017-12-08 17:40:00,2,9240,75,0.01,2,2,0,2,7862,10601,888,9432,71,77,3,77,0.00,0.05,0.02,0.00
2017-12-08 17:50:00,2,9254,73,0.03,2,2,0,2,5020,11942,2397,9440,71,77,3,71,0.00,0.10,0.03,0.03
2017-12-08 18:00:00,2,9580,75,0.02,2,2,0,2,7618,12249,1620,9492,71,77,3,77,0.00,0.05,0.02,0.00
2017-12-08 18:10:00,2,11348,36,0.00,2,2,0,2,9140,15255,1785,11265,10,77,31,10,0.00,0.00,0.00,0.00
2017-12-08 18:20:00,2,9059,4,0.00,2,2,0,2,6573,10999,1370,9542,0,10,5,0,0.00,0.00,0.00,0.00
2017-12-08 18:30:00,2,12182,73,0.01,2,2,0,2,10279,15733,1508,12305,71,77,3,71,0.00,0.05,0.02,0.00
2017-12-08 18:40:00,2,10508,37,0.00,2,2,0,2,7476,13150,1493,10722,0,77,37,36,0.00,0.00,0.00,0.00
2017-12-08 18:50:00,2,10108,73,0.02,2,2,0,2,5792,13250,2562,10956,71,77,3,71,0.00,0.05,0.02,0.00
2017-12-08 19:00:00,2,11482,75,0.02,2,2,0,2,9654,13074,1174,11475,71,77,3,77,0.00,0.05,0.02,0.00
2017-12-08 19:10:00,2,9059,73,0.03,2,2,0,2,7339,9969,723,9353,71,77,3,71,0.00,0.05,0.03,0.03
2017-12-08 19:20:00,2,7880,75,0.03,2,2,0,2,6259,10002,1150,7535,71,77,3,77,0.00,0.05,0.03,0.03
2017-12-08 19:30:00,2,5785,73,0.03,2,2,0,2,4168,9401,1473,5356,71,77,3,71,0.00,0.05,0.03,0.03
2017-12-08 19:40:00,2,5276,75,0.04,2,2,0,2,3945,5853,544,5392,71,77,3,77,0.00,0.10,0.03,0.05
2017-12-08 19:50:00,2,5023,73,0.04,2,2,0,2,3978,5845,635,5033,71,77,3,71,0.00,0.15,0.04,0.05
2017-12-08 20:00:00,2,6260,75,0.04,2,2,0,2,4104,7790,1189,6226,71,77,3,77,0.00,0.10,0.04,0.05
2017-12-08 20:10:00,2,5115,73,0.05,2,2,0,2,3398,7332,1074,5096,71,77,3,71,0.00,0.10,0.03,0.05
2017-12-08 20:20:00,2,4523,75,0.06,2,2,0,2,2939,7805,1533,3686,71,77,3,77,0.00,0.10,0.03,0.05
2017-12-08 20:30:00,2,6524,73,0.05,2,2,0,2,4088,8201,1354,7217,71,77,3,71,0.00,0.10,0.02,0.05
2017-12-08 20:40:00,2,7641,75,0.04,2,2,0,2,4828,10396,1873,8339,71,77,3,77,0.00,0.05,0.02,0.05
2017-12-08 20:50:00,2,10295,73,0.03,2,2,0,2,8119,11746,1162,10334,71,77,3,71,0.00,0.05,0.03,0.03
2017-12-08 21:00:00,2,8284,75,0.04,2,2,0,2,6709,9597,1068,8162,71,77,3,77,0.00,0.10,0.03,0.05
2017-12-08 21:10:00,2,17097,73,0.05,2,2,0,2,10833,23487,4598,18031,71,77,3,71,0.00,0.10,0.02,0.05
2017-12-08 21:20:00,2,16696,75,0.04,2,2,0,2,6831,27419,6309,14436,71,77,3,77,0.00,0.10,0.03,0.05
2017-12-08 21:30:00,2,9422,73,0.07,2,2,0,2,5650,12229,1934,9972,71,77,3,71,0.05,0.10,0.03,0.08
2017-12-08 21:40:00,2,5013,75,0.13,2,2,0,2,2844,8435,1631,4319,71,77,3,77,0.05,0.25,0.08,0.10
2017-12-08 21:50:00,2,4429,75,1.03,2,2,0,2,1115,10631,3165,4125,71,77,3,77,0.05,3.15,1.21,0.20
2017-12-08 22:00:00,2,2352,75,1.47,2,2,0,2,1230,8051,1965,1661,71,77,3,77,0.15,2.50,0.79,1.40
2017-12-08 22:10:00,2,18982,74,0.06,2,2,0,2,11594,23328,3405,19947,71,77,3,74,0.00,0.10,0.03,0.05
2017-12-08 22:20:00,2,17387,74,0.04,2,2,0,2,11025,23629,3815,18716,71,77,3,74,0.00,0.10,0.03,0.05
2017-12-08 22:30:00,2,17242,74,0.04,2,2,0,2,11810,23007,3847,16768,71,77,3,74,0.00,0.10,0.04,0.05
2017-12-08 22:40:00,2,15985,74,0.04,2,2,0,2,8498,18981,3225,17356,71,77,3,74,0.00,0.05,0.02,0.05
2017-12-08 22:50:00,2,14992,74,0.03,2,2,0,2,8187,23388,4519,16262,71,77,3,74,0.00,0.10,0.03,0.03
2017-12-08 23:00:00,2,25696,66,0.03,2,2,0,2,17294,39018,6580,23092,0,77,22,71,0.00,0.10,0.03,0.00
2017-12-08 23:10:00,2,22605,74,0.03,2,2,0,2,19634,25789,2270,22643,71,77,3,74,0.00,0.10,0.03,0.03
2017-12-08 23:20:00,2,23604,74,0.04,2,2,0,2,19507,27299,2735,23280,71,77,3,74,0.00,0.10,0.04,0.05
2017-12-08 23:30:00,2,20356,74,0.04,2,2,0,2,12120,28858,4565,20197,71,77,3,74,0.00,0.10,0.04,0.05
2017-12-08 23:40:00,2,17165,74,0.06,2,2,0,2,12344,21907,2821,17572,71,77,3,74,0.00,0.10,0.03,0.05
2017-12-08 23:50:00,2,11889,74,0.07,2,2,0,2,7176,17186,3021,11259,71,77,3,74,0.05,0.10,0.03,0.08
